Track WESTFORD NEEDLES now! 10-day predictions WESTFORD NEEDLES is classified as:
1 00628U 63014F 21024.91473041 .00000003 00000-0 00000-0 0 9991 2 00628 87.3383 30.4572 0048200 277.5442 81.9938 8.63364704818990